Location: Broek
(53.2737°N, 5.9967°E)
Time: 22:50:53
(UTC+00:00)

CZ-4B DEB - Pass Details

Date: 10 October 2024
Orbit: 835 x 856 km, 99.0° (Epoch: 09 November)

Event Time Altitude Azimuth Distance (km) Brightness Sun altitude
Exits shadow 18:11:57 - 145° (SE) 3,008 6.7 -13.0°
Reaches altitude 10° 18:13:23 10° 142° (SE) 2,453 6.2 -13.2°
Maximum altitude 18:18:40 55° 66° (ENE) 1,001 4.3 -14.0°
Drops below altitude 10° 18:23:59 10° 350° (N) 2,462 6.8 -14.8°
Sets 18:26:23 0° 347° (NNW) 3,400 7.7 -15.1°
